BAW659 LGKF-EGLL

Flight info

Callsign BAW659
Flight time N/A
Altitude 36000
Route LATAN3E LATAN DCT LUPAL DCT ULFIG DCT MOKTO DCT LIKNO DCT PETAS DCT LUTOR DCT BOA DCT ABESI/N0444F380 DCT UTAVO DCT HOC DCT LUL DCT RLP DCT ROTSI DCT KOTUN DCT NINAL DCT ABNUR DCT DIMAL DCT ALESO ALESO1H
Aircraft A320/M-SDE3FGIJ1KRWXY/SB1

Departure

Time 2026-05-09 13:35
Airport Kefallinia Airport (LGKF)

Arrival

Time N/A
Airport London Heathrow Airport (EGLL)
Time Latitude Longitude Altitude Speed Heading
2026-05-09 13:00 38.11908 20.50413 57 ft 0 kts 57°
2026-05-09 13:26 38.11900 20.50397 56 ft 4 kts 59°
2026-05-09 13:26 38.11887 20.50367 50 ft 4 kts 68°
2026-05-09 13:26 38.11880 20.50334 51 ft 4 kts 92°
2026-05-09 13:27 38.11887 20.50310 48 ft 1 kts 146°
2026-05-09 13:27 38.11890 20.50307 48 ft 0 kts 146°
2026-05-09 13:29 38.11888 20.50309 48 ft 0 kts 146°
2026-05-09 13:29 38.11879 20.50317 52 ft 4 kts 145°
2026-05-09 13:30 38.11847 20.50345 56 ft 7 kts 145°
2026-05-09 13:30 38.11799 20.50360 55 ft 8 kts 200°
2026-05-09 13:30 38.11792 20.50356 56 ft 0 kts 206°
2026-05-09 13:31 38.11790 20.50355 56 ft 2 kts 206°
2026-05-09 13:31 38.11746 20.50327 53 ft 12 kts 206°
2026-05-09 13:31 38.11647 20.50350 52 ft 22 kts 147°
2026-05-09 13:32 38.11507 20.50467 54 ft 26 kts 146°
2026-05-09 13:32 38.11209 20.50726 43 ft 11 kts 142°
2026-05-09 13:32 38.11192 20.50741 42 ft 5 kts 145°
2026-05-09 13:33 38.11151 20.50804 40 ft 13 kts 120°
2026-05-09 13:33 38.11119 20.50795 40 ft 1 kts 304°
2026-05-09 13:33 38.11137 20.50782 39 ft 0 kts 326°
2026-05-09 13:34 38.11140 20.50780 39 ft 5 kts 326°
2026-05-09 13:34 38.11395 20.50560 53 ft 82 kts 326°
2026-05-09 13:34 38.12053 20.50005 53 ft 142 kts 326°
2026-05-09 13:35 38.12958 20.49230 423 ft 161 kts 324°
2026-05-09 13:35 38.13888 20.48388 1123 ft 163 kts 325°
2026-05-09 13:35 38.14788 20.47546 1588 ft 172 kts 325°
2026-05-09 13:35 38.15824 20.46598 1841 ft 195 kts 324°
2026-05-09 13:36 38.16978 20.45545 2206 ft 210 kts 324°
2026-05-09 13:36 38.18183 20.44451 2790 ft 214 kts 324°
2026-05-09 13:36 38.19411 20.43338 3479 ft 219 kts 324°
2026-05-09 13:36 38.20650 20.42214 4340 ft 219 kts 324°
2026-05-09 13:37 38.21898 20.41084 5104 ft 222 kts 324°
2026-05-09 13:37 38.23163 20.39940 5866 ft 225 kts 324°
2026-05-09 13:37 38.24445 20.38783 6147 ft 225 kts 324°
2026-05-09 13:37 38.25678 20.37523 6410 ft 237 kts 312°
2026-05-09 13:38 38.26611 20.35674 6781 ft 261 kts 291°
2026-05-09 13:38 38.27143 20.33421 7477 ft 268 kts 287°
2026-05-09 13:38 38.27665 20.31143 8379 ft 268 kts 290°
2026-05-09 13:38 38.28516 20.29055 9307 ft 267 kts 306°
2026-05-09 13:39 38.29769 20.27324 10210 ft 266 kts 315°
2026-05-09 13:39 38.31109 20.25686 10901 ft 273 kts 314°
2026-05-09 13:39 38.32526 20.23933 11110 ft 296 kts 314°
2026-05-09 13:39 38.34033 20.22045 11514 ft 309 kts 313°
2026-05-09 13:40 38.35576 20.20107 12175 ft 313 kts 313°
2026-05-09 13:40 38.37134 20.18149 12881 ft 316 kts 313°
2026-05-09 13:40 38.38706 20.16170 13589 ft 319 kts 313°
2026-05-09 13:40 38.40288 20.14178 14233 ft 322 kts 313°
2026-05-09 13:41 38.41888 20.12165 14843 ft 324 kts 313°
2026-05-09 13:41 38.43490 20.10150 15446 ft 326 kts 313°
2026-05-09 13:41 38.45114 20.08107 16049 ft 329 kts 313°
2026-05-09 13:41 38.46744 20.06051 16653 ft 331 kts 313°
2026-05-09 13:42 38.48391 20.03972 17253 ft 334 kts 314°
2026-05-09 13:42 38.50045 20.01880 17855 ft 336 kts 314°
2026-05-09 13:42 38.51718 19.99764 18441 ft 339 kts 314°
2026-05-09 13:42 38.53398 19.97639 18966 ft 342 kts 314°
2026-05-09 13:43 38.55094 19.95493 19501 ft 344 kts 313°
2026-05-09 13:43 38.56802 19.93329 20035 ft 347 kts 313°
2026-05-09 13:43 38.58520 19.91151 20557 ft 350 kts 313°
2026-05-09 13:43 38.60256 19.88949 21055 ft 353 kts 313°
2026-05-09 13:44 38.62000 19.86733 21539 ft 355 kts 313°
2026-05-09 13:44 38.63760 19.84496 22025 ft 358 kts 313°
2026-05-09 13:44 38.65501 19.82278 22490 ft 361 kts 313°
2026-05-09 13:44 38.67268 19.80030 22950 ft 364 kts 312°
2026-05-09 13:45 38.69070 19.77737 23415 ft 366 kts 312°
2026-05-09 13:45 38.70883 19.75429 23831 ft 369 kts 312°
2026-05-09 13:45 38.72710 19.73102 24222 ft 372 kts 312°
2026-05-09 13:45 38.74546 19.70764 24617 ft 374 kts 312°
2026-05-09 13:46 38.76398 19.68404 25008 ft 376 kts 312°
2026-05-09 13:46 38.78254 19.66035 25405 ft 378 kts 312°
2026-05-09 13:46 38.80124 19.63645 25793 ft 380 kts 312°
2026-05-09 13:46 38.81995 19.61245 26176 ft 382 kts 312°
2026-05-09 13:47 38.83881 19.58828 26552 ft 384 kts 312°
2026-05-09 13:47 38.85775 19.56401 26933 ft 386 kts 312°
2026-05-09 13:47 38.87678 19.53958 27297 ft 388 kts 312°
2026-05-09 13:47 38.89589 19.51502 27668 ft 390 kts 311°
2026-05-09 13:48 38.91514 19.49023 28040 ft 392 kts 311°
2026-05-09 13:48 38.93445 19.46538 28416 ft 395 kts 311°
2026-05-09 13:48 38.95391 19.44033 28790 ft 397 kts 311°
2026-05-09 13:48 38.97346 19.41511 29159 ft 399 kts 311°
2026-05-09 13:49 38.99308 19.38981 29527 ft 401 kts 311°
2026-05-09 13:49 39.01280 19.36435 29886 ft 403 kts 311°
2026-05-09 13:49 39.03264 19.33871 30223 ft 405 kts 311°
2026-05-09 13:49 39.05257 19.31297 30533 ft 407 kts 311°
2026-05-09 13:50 39.07257 19.28716 30856 ft 408 kts 311°
2026-05-09 13:50 39.09267 19.26116 31188 ft 409 kts 311°
2026-05-09 13:50 39.11270 19.23525 31621 ft 407 kts 311°
2026-05-09 13:50 39.13257 19.20956 32120 ft 404 kts 311°
2026-05-09 13:51 39.15237 19.18391 32625 ft 401 kts 311°
2026-05-09 13:51 39.17199 19.15844 33136 ft 399 kts 311°
2026-05-09 13:51 39.19142 19.13316 33639 ft 396 kts 310°
2026-05-09 13:51 39.21073 19.10802 34132 ft 393 kts 310°
2026-05-09 13:52 39.22992 19.08303 34557 ft 391 kts 310°
2026-05-09 13:52 39.24900 19.05813 34950 ft 390 kts 310°
2026-05-09 13:52 39.26799 19.03330 35303 ft 389 kts 310°
2026-05-09 13:52 39.28698 19.00843 35646 ft 388 kts 311°
2026-05-09 13:53 39.30591 18.98367 35975 ft 388 kts 311°
2026-05-09 13:53 39.32491 18.95891 36061 ft 388 kts 311°
2026-05-09 13:53 39.36294 18.90936 36076 ft 388 kts 311°
2026-05-09 13:54 39.40086 18.85987 36079 ft 388 kts 311°
2026-05-09 13:54 39.43849 18.81052 36077 ft 388 kts 311°
2026-05-09 13:55 39.47639 18.76081 36079 ft 388 kts 310°
2026-05-09 13:55 39.51381 18.71051 36089 ft 388 kts 310°
2026-05-09 13:56 39.55092 18.65974 36090 ft 388 kts 310°
2026-05-09 13:56 39.58732 18.61023 36092 ft 388 kts 310°
2026-05-09 13:57 39.62472 18.55957 36095 ft 389 kts 310°
2026-05-09 13:57 39.66206 18.50889 36095 ft 389 kts 310°
2026-05-09 13:58 39.69933 18.45795 36100 ft 389 kts 309°
2026-05-09 13:58 39.73655 18.40699 36105 ft 389 kts 309°
2026-05-09 13:59 39.77388 18.35606 36104 ft 389 kts 309°
2026-05-09 13:59 39.81118 18.30514 36097 ft 389 kts 309°
2026-05-09 14:00 39.83609 18.27100 36100 ft 389 kts 309°
2026-05-09 14:00 39.87839 18.21276 36096 ft 389 kts 309°
2026-05-09 14:01 39.91558 18.16149 36094 ft 389 kts 309°
2026-05-09 14:01 39.95230 18.11093 36086 ft 389 kts 309°
2026-05-09 14:02 39.98947 18.05957 36094 ft 389 kts 309°
2026-05-09 14:02 40.02658 18.00821 36097 ft 389 kts 309°
2026-05-09 14:03 40.06376 17.95675 36094 ft 389 kts 309°
2026-05-09 14:03 40.10089 17.90525 36095 ft 389 kts 309°
2026-05-09 14:04 40.13796 17.85367 36096 ft 389 kts 309°
2026-05-09 14:04 40.17504 17.80206 36102 ft 389 kts 309°
2026-05-09 14:05 40.21185 17.75068 36094 ft 390 kts 309°
2026-05-09 14:05 40.24888 17.69893 36090 ft 390 kts 309°
2026-05-09 14:06 40.28588 17.64709 36092 ft 389 kts 309°
2026-05-09 14:06 40.32287 17.59525 36097 ft 390 kts 309°
2026-05-09 14:07 40.35985 17.54337 36101 ft 390 kts 309°
2026-05-09 14:07 40.39686 17.49137 36104 ft 390 kts 309°
2026-05-09 14:08 40.43379 17.43922 36106 ft 389 kts 308°
2026-05-09 14:08 40.47033 17.38687 36098 ft 389 kts 308°
2026-05-09 14:09 40.50632 17.33368 36104 ft 389 kts 307°
2026-05-09 14:09 40.54226 17.28046 36105 ft 389 kts 307°
2026-05-09 14:10 40.59629 17.20076 36098 ft 389 kts 307°
2026-05-09 14:11 40.63256 17.14775 36110 ft 390 kts 308°
2026-05-09 14:11 40.66976 17.09568 36112 ft 391 kts 309°
2026-05-09 14:12 40.70661 17.04462 36121 ft 391 kts 309°
2026-05-09 14:12 40.74391 16.99251 36122 ft 391 kts 308°
2026-05-09 14:13 40.78078 16.94048 36123 ft 391 kts 308°
2026-05-09 14:15 40.92878 16.73062 36096 ft 391 kts 308°
2026-05-09 14:15 40.96582 16.67809 36092 ft 391 kts 308°
2026-05-09 14:16 41.00287 16.62533 36091 ft 391 kts 308°
2026-05-09 14:16 41.03977 16.57254 36091 ft 391 kts 308°
2026-05-09 14:17 41.07666 16.51977 36092 ft 391 kts 308°
2026-05-09 14:17 41.11359 16.46689 36092 ft 391 kts 308°
2026-05-09 14:18 41.15048 16.41392 36093 ft 391 kts 308°